Charlotte, MI

4:47 AM EST on February 14, 2016 (GMT -0500)
Charlotte

Weather History for KFPK - December, 2013

Change the Weather History Date:

Friday, December 6, 2013

  Actual Average (KLAN) Record (KLAN)
Temperature  
Mean Temperature 22 °F 31 °F  
Max Temperature 28 °F 37 °F 65 °F (1998)
Min Temperature 17 °F 25 °F -17 °F (1964)
Degree Days  
Heating Degree Days 42 34  
Month to date heating degree days 197  
Since 1 July heating degree days 1611  
Cooling Degree Days 0 0  
Month to date cooling degree days 0  
Year to date cooling degree days 625  
Moisture  
Dew Point 16 °F    
Average Humidity 70    
Maximum Humidity 74    
Minimum Humidity 63    
Precipitation  
Precipitation 0.00 in 0.06 in 1.50 in (1885)
Month to date precipitation 0.41  
Year to date precipitation 30.31  
Snow  
Snow 0.00 in 0.40 in 7.00 in (1885)
Month to date snowfall 2.0  
Since 1 July snowfall 5.8  
Snow Depth -    
Sea Level Pressure  
Sea Level Pressure 30.24 in    
Wind  
Wind Speed 8 mph (WNW)    
Max Wind Speed 12 mph    
Max Gust Speed -    
Visibility 10 miles    
Events      
T = Trace of Precipitation, MM = Missing Value Source: NWS Daily Summary

Daily Weather History Graph

Daily Weather History Graph

Search for Another Location

Airport or City:

Trip Planner

Search our weather history database for the weather conditions in past years. The results will help you decide how hot, cold, wet, or windy it might be!

Date:

Astronomy

Dec. 06, 2013 Rise Set
Actual Time 7:54 AM EST 5:06 PM EST
Civil Twilight 7:23 AM EST 5:37 PM EST
Nautical Twilight 6:47 AM EST 6:13 PM EST
Astronomical Twilight 6:13 AM EST 6:47 PM EST
Moon 10:56 AM EST (12/6) 9:40 PM EST (12/6)
Length of Visible Light 10h 14m
Length of Day
9h 11m
Waxing Crescent, 19% of the Moon is Illuminated
Dec 6
Waxing Crescent
Dec 9
First Quarter
Dec 17
Full
Dec 25
Last Quarter
Jan 1
New

Hourly Weather History & Observations

Time (EST) Temp. Windchill Dew Point Humidity Pressure Visibility Wind Dir Wind Speed Gust Speed Precip Events Conditions
12:17 AM 28.4 °F 19.7 °F 19.4 °F 69% 30.13 in 10.0 mi West 9.2 mph - N/A   Clear
12:37 AM 28.4 °F 20.4 °F 19.4 °F 69% 30.14 in 10.0 mi West 8.1 mph - N/A   Clear
12:58 AM 28.4 °F 19.1 °F 19.4 °F 69% 30.14 in 10.0 mi West 10.4 mph - N/A   Clear
1:17 AM 28.4 °F 19.1 °F 19.4 °F 69% 30.14 in 10.0 mi WNW 10.4 mph - N/A   Scattered Clouds
1:37 AM 28.4 °F 21.2 °F 19.4 °F 69% 30.14 in 10.0 mi WNW 6.9 mph - N/A   Mostly Cloudy
1:57 AM 28.4 °F 20.4 °F 19.4 °F 69% 30.13 in 10.0 mi WNW 8.1 mph - N/A   Mostly Cloudy
2:18 AM 28.4 °F 19.7 °F 19.4 °F 69% 30.13 in 10.0 mi West 9.2 mph - N/A   Scattered Clouds
2:37 AM 28.4 °F 19.7 °F 19.4 °F 69% 30.13 in 10.0 mi WNW 9.2 mph - N/A   Scattered Clouds
2:58 AM 26.6 °F 19.1 °F 19.4 °F 74% 30.14 in 10.0 mi NW 6.9 mph - N/A   Scattered Clouds
3:17 AM 26.6 °F 18.2 °F 19.4 °F 74% 30.14 in 10.0 mi NW 8.1 mph - N/A   Clear
3:37 AM 26.6 °F 19.1 °F 19.4 °F 74% 30.15 in 10.0 mi WNW 6.9 mph - N/A   Clear
3:58 AM 26.6 °F 19.1 °F 19.4 °F 74% 30.15 in 10.0 mi WNW 6.9 mph - N/A   Clear
4:18 AM 26.6 °F 18.2 °F 19.4 °F 74% 30.15 in 10.0 mi WNW 8.1 mph - N/A   Clear
4:38 AM 26.6 °F 19.1 °F 17.6 °F 69% 30.16 in 10.0 mi WNW 6.9 mph - N/A   Clear
4:57 AM 26.6 °F 18.2 °F 17.6 °F 69% 30.18 in 10.0 mi West 8.1 mph - N/A   Scattered Clouds
5:18 AM 26.6 °F 18.2 °F 17.6 °F 69% 30.17 in 10.0 mi WNW 8.1 mph - N/A   Overcast
5:38 AM 24.8 °F 19.1 °F 17.6 °F 74% 30.17 in 10.0 mi NW 4.6 mph - N/A   Overcast
5:58 AM 24.8 °F 16.1 °F 17.6 °F 74% 30.17 in 10.0 mi NW 8.1 mph - N/A   Overcast
6:19 AM 24.8 °F 15.3 °F 17.6 °F 74% 30.19 in 10.0 mi WNW 9.2 mph - N/A   Overcast
6:38 AM 24.8 °F 16.9 °F 17.6 °F 74% 30.19 in 10.0 mi WNW 6.9 mph - N/A   Overcast
6:59 AM 24.8 °F 16.1 °F 17.6 °F 74% 30.19 in 10.0 mi WNW 8.1 mph - N/A   Overcast
7:18 AM 24.8 °F 15.3 °F 17.6 °F 74% 30.20 in 10.0 mi WNW 9.2 mph - N/A   Overcast
7:38 AM 24.8 °F 16.9 °F 17.6 °F 74% 30.20 in 10.0 mi WNW 6.9 mph - N/A   Overcast
7:58 AM 24.8 °F 16.1 °F 15.8 °F 69% 30.21 in 10.0 mi WNW 8.1 mph - N/A   Overcast
8:17 AM 24.8 °F 15.3 °F 15.8 °F 69% 30.22 in 10.0 mi WNW 9.2 mph - N/A   Mostly Cloudy
8:37 AM 24.8 °F 16.1 °F 15.8 °F 69% 30.23 in 10.0 mi West 8.1 mph - N/A   Scattered Clouds
8:57 AM 24.8 °F 16.9 °F 17.6 °F 74% 30.24 in 10.0 mi WNW 6.9 mph - N/A   Mostly Cloudy
9:17 AM 24.8 °F 16.9 °F 15.8 °F 69% 30.24 in 10.0 mi West 6.9 mph - N/A   Overcast
9:38 AM 23.0 °F 14.7 °F 15.8 °F 74% 30.23 in 10.0 mi NW 6.9 mph - N/A   Overcast
9:57 AM 23.0 °F 15.8 °F 15.8 °F 74% 30.22 in 10.0 mi NW 5.8 mph - N/A   Overcast
10:17 AM 24.8 °F 19.1 °F 15.8 °F 69% 30.25 in 10.0 mi WNW 4.6 mph - N/A   Overcast
10:37 AM 23.0 °F 13.9 °F 15.8 °F 74% 30.26 in 10.0 mi NW 8.1 mph - N/A   Overcast
10:57 AM 23.0 °F 12.4 °F 15.8 °F 74% 30.27 in 10.0 mi WNW 10.4 mph - N/A   Overcast
11:18 AM 24.8 °F 15.3 °F 15.8 °F 69% 30.28 in 10.0 mi NW 9.2 mph - N/A   Overcast
11:37 AM 24.8 °F 14.6 °F 15.8 °F 69% 30.27 in 10.0 mi WNW 10.4 mph - N/A   Overcast
11:57 AM 24.8 °F 16.9 °F 15.8 °F 69% 30.25 in 10.0 mi NNW 6.9 mph - N/A   Mostly Cloudy
12:18 PM 24.8 °F 15.3 °F 15.8 °F 69% 30.26 in 10.0 mi NW 9.2 mph - N/A   Overcast
12:37 PM 24.8 °F 16.9 °F 15.8 °F 69% 30.26 in 10.0 mi NW 6.9 mph - N/A   Overcast
12:58 PM 24.8 °F 14.6 °F 15.8 °F 69% 30.25 in 10.0 mi WNW 10.4 mph - N/A   Overcast
1:16 PM 24.8 °F 15.3 °F 15.8 °F 69% 30.25 in 10.0 mi West 9.2 mph - N/A   Overcast
1:36 PM 24.8 °F 16.1 °F 15.8 °F 69% 30.24 in 10.0 mi NW 8.1 mph - N/A   Overcast
1:57 PM 24.8 °F 14.0 °F 14.0 °F 64% 30.24 in 10.0 mi NW 11.5 mph - N/A   Overcast
2:17 PM 24.8 °F 17.9 °F 15.8 °F 69% 30.23 in 10.0 mi NW 5.8 mph - N/A   Overcast
2:36 PM 24.8 °F 16.1 °F 14.0 °F 64% 30.24 in 10.0 mi NW 8.1 mph - N/A   Overcast
2:56 PM 24.8 °F 14.6 °F 14.0 °F 64% 30.24 in 10.0 mi NW 10.4 mph - N/A   Overcast
3:16 PM 24.8 °F 16.1 °F 15.8 °F 69% 30.23 in 10.0 mi WNW 8.1 mph - N/A   Overcast
3:36 PM 24.8 °F 15.3 °F 14.0 °F 64% 30.25 in 10.0 mi West 9.2 mph - N/A   Overcast
3:56 PM 24.8 °F 17.9 °F 14.0 °F 64% 30.26 in 10.0 mi West 5.8 mph - N/A   Overcast
4:17 PM 23.0 °F 13.9 °F 14.0 °F 68% 30.25 in 10.0 mi WNW 8.1 mph - N/A   Overcast
4:36 PM 23.0 °F 15.8 °F 14.0 °F 68% 30.25 in 10.0 mi NW 5.8 mph - N/A   Overcast
4:56 PM 23.0 °F 17.0 °F 14.0 °F 68% 30.26 in 10.0 mi WNW 4.6 mph - N/A   Scattered Clouds
5:16 PM 23.0 °F 13.9 °F 14.0 °F 68% 30.27 in 10.0 mi NW 8.1 mph - N/A   Scattered Clouds
5:36 PM 23.0 °F 17.0 °F 14.0 °F 68% 30.26 in 10.0 mi WNW 4.6 mph - N/A   Mostly Cloudy
5:56 PM 23.0 °F 14.7 °F 14.0 °F 68% 30.28 in 10.0 mi NW 6.9 mph - N/A   Overcast
6:16 PM 23.0 °F 13.9 °F 14.0 °F 68% 30.29 in 10.0 mi NW 8.1 mph - N/A   Overcast
6:36 PM 23.0 °F 15.8 °F 14.0 °F 68% 30.28 in 10.0 mi WNW 5.8 mph - N/A   Overcast
6:56 PM 23.0 °F 14.7 °F 14.0 °F 68% 30.29 in 10.0 mi WNW 6.9 mph - N/A   Scattered Clouds
7:16 PM 23.0 °F 13.9 °F 14.0 °F 68% 30.29 in 10.0 mi NW 8.1 mph - N/A   Mostly Cloudy
7:36 PM 21.2 °F 13.6 °F 14.0 °F 74% 30.33 in 10.0 mi WNW 5.8 mph - N/A   Overcast
7:56 PM 21.2 °F 13.6 °F 12.2 °F 68% 30.32 in 10.0 mi WNW 5.8 mph - N/A   Overcast
8:16 PM 21.2 °F 14.9 °F 14.0 °F 74% 30.31 in 10.0 mi WNW 4.6 mph - N/A   Overcast
8:38 PM 21.2 °F 11.7 °F 14.0 °F 74% 30.31 in 10.0 mi NW 8.1 mph - N/A   Overcast
8:57 PM 21.2 °F 11.7 °F 12.2 °F 68% 30.33 in 10.0 mi WNW 8.1 mph - N/A   Overcast
9:16 PM 21.2 °F 11.7 °F 12.2 °F 68% 30.33 in 10.0 mi NW 8.1 mph - N/A   Overcast
9:36 PM 21.2 °F 12.6 °F 10.4 °F 63% 30.34 in 10.0 mi NW 6.9 mph - N/A   Overcast
9:56 PM 19.4 °F 11.5 °F 10.4 °F 68% 30.35 in 10.0 mi NNW 5.8 mph - N/A   Overcast
10:16 PM 19.4 °F 10.4 °F 10.4 °F 68% 30.35 in 10.0 mi NNW 6.9 mph - N/A   Overcast
10:36 PM 17.6 °F 8.2 °F 10.4 °F 73% 30.35 in 10.0 mi NNW 6.9 mph - N/A   Mostly Cloudy
10:56 PM 17.6 °F 10.7 °F 10.4 °F 73% 30.36 in 10.0 mi NW 4.6 mph - N/A   Scattered Clouds
11:16 PM 17.6 °F - 10.4 °F 73% 30.37 in 10.0 mi Calm Calm - N/A   Overcast
11:36 PM 19.4 °F 14.3 °F 10.4 °F 68% 30.37 in 10.0 mi WNW 3.5 mph - N/A   Overcast
11:56 PM 19.4 °F - 10.4 °F 68% 30.38 in 10.0 mi Calm Calm - N/A   Overcast